Overview Statistics Trail Chart Weather Telemetry Raw packets
 

This is the latest recevied weather packets stored in our database for station/object VE8SKI. If no packets are shown the sender has not sent any weather packets the latest 10 day(s).

<< 8 9 10 11 12 13 14 >>
Time Temp. Humidity Pressure Rain* Wind** Luminosity Snow
1778041413 3.89° C 61% 1017.9 hPa 0 mm 1.34 m/s, 44° - -
1778041113 3.89° C 61% 1017.8 hPa 0 mm 3.13 m/s, 181° - -
1778040814 3.89° C 62% 1017.9 hPa 0 mm 1.79 m/s, 160° - -
1778040514 3.89° C 62% 1017.8 hPa 0 mm 0.89 m/s, 127° - -
1778040214 4.44° C 61% 1017.8 hPa 0 mm 1.34 m/s, 208° - -
1778039915 4.44° C 61% 1017.8 hPa 0 mm 1.79 m/s, 217° - -
1778039612 4.44° C 61% 1017.7 hPa 0 mm 0 m/s - -
1778039313 4.44° C 60% 1017.7 hPa 0 mm 0.89 m/s, 105° - -
1778039013 5° C 60% 1017.6 hPa 0 mm 0.89 m/s, 136° - -
1778038714 5° C 60% 1017.6 hPa 0 mm 0.89 m/s, 113° - -
1778038414 5° C 59% 1017.5 hPa 0 mm 0.45 m/s, 149° - -
1778038115 5° C 59% 1017.4 hPa 0 mm 1.34 m/s, 253° - -
1778037812 5.56° C 58% 1017.4 hPa 0 mm 0.89 m/s, 219° - -
1778037513 5.56° C 57% 1017.3 hPa 0 mm 1.79 m/s, 188° - -
1778037213 5.56° C 56% 1017.2 hPa 0 mm 3.13 m/s, 260° - -
1778036914 5.56° C 56% 1017.2 hPa 0 mm 0.89 m/s, 176° - -
1778036614 5.56° C 56% 1017.2 hPa 0 mm 2.24 m/s, 221° - -
1778036315 6.11° C 55% 1017.1 hPa 0 mm 1.34 m/s, 212° - -
1778036012 6.11° C 54% 1017 hPa 0 mm 1.79 m/s, 210° - -
1778035713 6.11° C 54% 1016.9 hPa 0 mm 2.68 m/s, 204° - -
1778035413 6.11° C 54% 1016.8 hPa 0 mm 1.79 m/s, 253° - -
1778035114 6.11° C 53% 1016.8 hPa 0 mm 2.68 m/s, 208° - -
1778034814 6.11° C 53% 1016.7 hPa 0 mm 2.24 m/s, 207° - -
1778034515 6.67° C 52% 1016.7 hPa 0 mm 2.68 m/s, 170° - -
1778034213 6.67° C 52% 1016.7 hPa 0 mm 2.24 m/s, 174° - -

* Rain latest hour (hover to see other rain measurements)
** Current wind speed in m/s (hover to see current wind gust speed)